Home   Weather   Brampton   Past weeks
Flag for Canada

Past Weather in Brampton, Ontario, Canada — Yesterday and Last 2 Weeks

Now
1 °F

Light snow. Passing clouds.


Feels Like: -20 °F
Forecast: 4 / -6 °F
Wind: 20 mph from North

Location: Toronto Pearson International Airport

Current Time: Jan 20, 2019 at 6:27:52 am

Latest Report: Jan 20, 2019 at 5:00 am


Visibility: 6 mi

Pressure: 29.86 "Hg

Humidity: 71%

Dew Point: -6 °F

Location of BramptonLocation

Past Weather in Brampton — Graph

°F

Brampton Temperature Yesterday

Maximum temperature yesterday: 18 °F (at 12:00 am)
Minimum temperature yesterday: 3 °F (at 9:00 pm)
Average temperature yesterday: 8 °F

High & Low Weather Summary for the Past Weeks

 TemperatureHumidityPressure
High46 °F (Jan 8, 3:00 am)93% (Jan 5, 7:54 am)30.60 "Hg (Jan 5, 7:54 am)
Low0 °F (Jan 20, 3:00 am)45% (Jan 11, 3:00 pm)29.55 "Hg (Jan 8, 6:23 pm)
Average24 °F69%30.12 "Hg
* Reported Jan 5 5:00 am — Jan 20 5:00 am, Brampton. Weather by CustomWeather, © 2019

Note: Actual official high and low records may vary slightly from our data, if they occured in-between our weather recording intervals... More about our weather records

Advertising

Brampton Weather History for the Previous 24 Hours

Scroll right to see more
 ConditionsComfort  
Time TempWeatherWind HumidityBarometerVisibility
5:00 am
Sun, Jan 20
1 °FLight snow. Passing clouds.20 mph71%29.86 "Hg6 mi
4:20 am1 °FLight snow. Overcast.23 mph71%29.84 "Hg3 mi
4:00 am1 °FLight snow. Overcast.22 mph71%29.84 "Hg2 mi
3:37 am0 °FLight snow. Overcast.20 mph78%29.85 "Hg1 mi
3:00 am0 °FLight snow. Low clouds.20 mph78%29.87 "Hg1 mi
2:35 am1 °FLight snow. Low clouds.22 mph71%29.89 "Hg1 mi
2:00 am1 °FLight snow. Overcast.21 mph71%29.91 "Hg2 mi
1:54 am1 °FLight snow. Overcast.22 mph78%29.89 "Hg2 mi
1:00 am1 °FLight snow. Low clouds.18 mph78%29.90 "Hg2 mi
12:38 am1 °FLight snow. Low clouds.17 mph78%29.92 "Hg1 mi
12:00 am3 °FLight snow. Low clouds.15 mph72%29.95 "Hg1 mi
11:10 pm
Sat, Jan 19
3 °FLight snow. Low clouds.21 mph72%29.97 "Hg1 mi
11:00 pm3 °FLight snow. Overcast.17 mph78%29.98 "Hg1 mi
10:47 pm3 °FLight snow. Overcast.18 mph78%29.99 "Hg1 mi
10:00 pm3 °FLight snow. Low clouds.18 mph78%30.00 "Hg1 mi
9:00 pm3 °FLight snow. Low clouds.16 mph78%30.04 "Hg2 mi
8:00 pm5 °FLight snow. Low clouds.14 mph72%30.06 "Hg2 mi
7:00 pm5 °FLight snow. Overcast.15 mph72%30.09 "Hg2 mi
6:06 pm7 °FLight snow. Low clouds.14 mph72%30.12 "Hg2 mi
5:00 pm7 °FLight snow. Overcast.13 mph72%30.13 "Hg3 mi
4:37 pm7 °FLight snow. Overcast.15 mph72%30.14 "Hg3 mi
4:00 pm7 °FLight snow. Overcast.14 mph72%30.16 "Hg1 mi
3:31 pm7 °FLight snow. Overcast.15 mph72%30.17 "Hg1 mi
3:09 pm7 °FLight snow. Overcast.15 mph72%30.18 "Hg1 mi
2:37 pm7 °FFrigid.14 mph72%30.20 "Hg1 mi
2:24 pm7 °FLight snow. Overcast.13 mph72%30.21 "Hg1 mi
2:00 pm7 °FLight snow. Ice fog.14 mph72%30.22 "Hg1 mi
1:00 pm7 °FLight snow. Ice fog.13 mph72%30.23 "Hg1 mi
12:23 pm7 °FLight snow. Ice fog.12 mph72%30.25 "Hg1 mi
12:00 pm7 °FFrigid.12 mph72%30.27 "Hg1 mi
11:00 am7 °FLight snow. Low clouds.10 mph66%30.30 "Hg1 mi
10:35 am7 °FLight snow. Low clouds.10 mph66%30.32 "Hg1 mi
10:00 am7 °FLight snow. Overcast.10 mph66%30.32 "Hg2 mi
9:49 am9 °FLight snow. Overcast.10 mph61%30.32 "Hg4 mi
9:00 am9 °FLight snow. Overcast.14 mph61%30.32 "Hg6 mi
8:00 am9 °FLight snow. Overcast.10 mph66%30.34 "Hg5 mi
7:35 am9 °FLight snow. Overcast.13 mph66%30.34 "Hg10 mi
7:00 am9 °FOvercast.10 mph61%30.35 "Hg15 mi
6:00 am9 °FPassing clouds.10 mph61%30.33 "Hg15 mi
Weather by CustomWeather, © 2019

See weather overview

LIVE TOTAL LUNAR ECLIPSE – Watch the eclipse as it happens